GALAXY 23 (G-23)

Last updated on Mon Sep 01 2025 00:02:44 GMT+0000 (Coordinated Universal Time)

1 27854U 03034A 25243.58262765 -.00000101 00000+0 00000+0 0 9994 2 27854 2.4432 83.2067 0005774 132.2507 262.2748 0.98953725 80830
UTC large
Height (km)
Speed (km/s)
/
Latitude / Longitude
Inclination (degrees)
Orbital Period (minutes)
Azimuth
Elevation
Range (km)
Doppler Factor

Next 0 passes for location: London (51.5072 / 0.1276)

Sorry there are no passes over London.